TimeEST,TemperatureF,Dew PointF,Humidity,Sea Level PressureIn,VisibilityMPH,Wind Direction,Wind SpeedMPH,Gust SpeedMPH,PrecipitationIn,Events,Conditions,WindDirDegrees,DateUTC
12:08 AM,28.4,28.4,100,29.81,2.5,NNW,16.1,-,N/A,Snow,Light Snow,340,2013-03-06 05:08:00
12:17 AM,28.4,28.4,100,29.81,3.0,NNW,17.3,-,N/A,Snow,Light Snow,340,2013-03-06 05:17:00
12:25 AM,28.4,28.4,100,29.81,3.0,NNW,16.1,-,N/A,Snow,Light Snow,340,2013-03-06 05:25:00
12:30 AM,28.4,28.4,100,29.81,4.0,North,18.4,-,N/A,Snow,Light Snow,350,2013-03-06 05:30:00
12:35 AM,28.4,28.4,100,29.81,4.0,North,17.3,-,N/A,Snow,Light Snow,350,2013-03-06 05:35:00
12:39 AM,28.4,28.4,100,29.81,5.0,North,21.9,-,N/A,Snow,Light Snow,350,2013-03-06 05:39:00
12:40 AM,28.4,28.4,100,29.81,5.0,North,24.2,-,N/A,Snow,Light Snow,350,2013-03-06 05:40:00
12:47 AM,28.4,28.4,100,29.82,6.0,North,20.7,31.1,N/A,Snow,Light Snow,360,2013-03-06 05:47:00
12:55 AM,28.8,27.1,94,29.82,9.0,North,19.6,-,0.00,,Overcast,350,2013-03-06 05:55:00
1:02 AM,28.4,26.6,93,29.83,7.0,North,19.6,-,N/A,Snow,Light Snow,350,2013-03-06 06:02:00
1:13 AM,28.4,26.6,93,29.83,6.0,North,23.0,-,N/A,Snow,Light Snow,360,2013-03-06 06:13:00
1:15 AM,28.4,26.6,93,29.84,6.0,North,20.7,26.5,N/A,Snow,Light Snow,360,2013-03-06 06:15:00
1:17 AM,28.4,26.6,93,29.84,4.0,North,18.4,-,N/A,Snow,Light Snow,360,2013-03-06 06:17:00
1:20 AM,28.4,26.6,93,29.84,4.0,North,19.6,-,N/A,Snow,Light Snow,360,2013-03-06 06:20:00
1:26 AM,28.4,26.6,93,29.84,5.0,North,19.6,-,N/A,Snow,Light Snow,350,2013-03-06 06:26:00
1:27 AM,28.4,26.6,93,29.84,6.0,North,18.4,-,N/A,Snow,Light Snow,350,2013-03-06 06:27:00
1:29 AM,28.4,26.6,93,29.84,6.0,North,18.4,-,N/A,Snow,Light Snow,350,2013-03-06 06:29:00
1:42 AM,28.4,26.6,93,29.85,6.0,North,21.9,26.5,N/A,Snow,Light Snow,360,2013-03-06 06:42:00
1:46 AM,28.4,26.6,93,29.85,4.0,North,18.4,26.5,N/A,Snow,Light Snow,360,2013-03-06 06:46:00
1:51 AM,28.4,26.6,93,29.86,3.0,North,18.4,26.5,N/A,Snow,Light Snow,360,2013-03-06 06:51:00
1:55 AM,27.7,26.2,94,29.86,3.0,North,17.3,-,0.00,Snow,Light Snow,350,2013-03-06 06:55:00
1:57 AM,28.4,26.6,93,29.86,5.0,NNW,17.3,-,N/A,Snow,Light Snow,340,2013-03-06 06:57:00
1:58 AM,28.4,26.6,93,29.86,6.0,NNW,16.1,-,N/A,Snow,Light Snow,340,2013-03-06 06:58:00
2:16 AM,26.6,24.8,93,29.87,5.0,North,19.6,28.8,N/A,Snow,Light Snow,350,2013-03-06 07:16:00
2:22 AM,26.6,24.8,93,29.87,5.0,NNW,17.3,-,N/A,Snow,Light Snow,340,2013-03-06 07:22:00
2:31 AM,26.6,26.6,100,29.88,5.0,NNW,17.3,-,N/A,Snow,Light Snow,340,2013-03-06 07:31:00
2:32 AM,26.6,24.8,93,29.87,4.0,NNW,17.3,-,N/A,Snow,Light Snow,340,2013-03-06 07:32:00
2:35 AM,26.6,24.8,93,29.87,4.0,NNW,17.3,-,N/A,Snow,Light Snow,340,2013-03-06 07:35:00
2:39 AM,26.6,24.8,93,29.88,4.0,North,19.6,-,N/A,Snow,Light Snow,350,2013-03-06 07:39:00
2:55 AM,27.1,25.5,94,29.88,4.0,North,20.7,-,0.00,Snow,Light Snow,350,2013-03-06 07:55:00
2:57 AM,26.6,24.8,93,29.88,4.0,NNW,18.4,-,N/A,Snow,Light Snow,340,2013-03-06 07:57:00
2:59 AM,26.6,24.8,93,29.88,4.0,NNW,18.4,-,N/A,Snow,Light Snow,340,2013-03-06 07:59:00
3:03 AM,26.6,24.8,93,29.88,4.0,NNW,20.7,-,N/A,Snow,Light Snow,340,2013-03-06 08:03:00
3:08 AM,26.6,24.8,93,29.88,5.0,North,19.6,-,N/A,Snow,Light Snow,350,2013-03-06 08:08:00
3:37 AM,26.6,24.8,93,29.89,7.0,NNW,21.9,29.9,N/A,Snow,Light Snow,340,2013-03-06 08:37:00
3:39 AM,26.6,24.8,93,29.89,7.0,NNW,19.6,29.9,N/A,Snow,Light Snow,340,2013-03-06 08:39:00
3:55 AM,27.5,24.8,90,29.91,10.0,NNW,18.4,-,0.00,Snow,Light Snow,340,2013-03-06 08:55:00
4:48 AM,26.6,24.8,93,29.94,10.0,NNW,16.1,-,N/A,,Freezing Rain,340,2013-03-06 09:48:00
4:55 AM,27.1,24.4,90,29.94,10.0,NNW,15.0,23.0,0.00,,Freezing Rain,330,2013-03-06 09:55:00
5:55 AM,27.1,24.3,89,30.00,10.0,NNW,17.3,-,0.00,,Freezing Rain,340,2013-03-06 10:55:00
6:55 AM,27.3,24.4,89,30.04,10.0,NNW,13.8,-,0.00,,Overcast,340,2013-03-06 11:55:00
7:55 AM,27.7,24.8,89,30.08,10.0,NNW,17.3,-,N/A,,Overcast,340,2013-03-06 12:55:00
8:55 AM,28.8,25.9,89,30.12,10.0,North,16.1,-,N/A,,Overcast,350,2013-03-06 13:55:00
9:55 AM,29.8,26.4,87,30.14,10.0,North,12.7,-,N/A,,Overcast,360,2013-03-06 14:55:00
10:30 AM,32.0,26.6,80,30.11,10.0,North,13.8,-,N/A,,Overcast,360,2013-03-06 15:30:00
10:55 AM,30.7,26.8,85,30.16,10.0,North,13.8,-,N/A,,Overcast,350,2013-03-06 15:55:00
11:55 AM,32.2,27.0,81,30.18,10.0,NNW,12.7,-,N/A,,Overcast,330,2013-03-06 16:55:00
12:38 PM,32.0,28.4,87,30.19,10.0,NW,12.7,-,N/A,,Overcast,320,2013-03-06 17:38:00
12:55 PM,32.7,27.5,81,30.19,10.0,NW,10.4,-,N/A,,Overcast,320,2013-03-06 17:55:00
1:55 PM,33.8,27.9,79,30.18,10.0,NW,10.4,-,N/A,,Overcast,310,2013-03-06 18:55:00
2:55 PM,34.3,28.2,78,30.18,10.0,NW,11.5,-,N/A,,Overcast,310,2013-03-06 19:55:00
3:55 PM,32.9,30.0,89,30.20,10.0,WNW,10.4,-,N/A,,Overcast,300,2013-03-06 20:55:00
4:55 PM,32.5,29.7,89,30.22,10.0,NW,9.2,-,N/A,,Overcast,310,2013-03-06 21:55:00
5:55 PM,32.5,30.0,90,30.23,10.0,WNW,10.4,-,N/A,,Overcast,290,2013-03-06 22:55:00
6:21 PM,32.0,30.2,93,30.24,10.0,WNW,9.2,-,N/A,,Overcast,290,2013-03-06 23:21:00
6:55 PM,32.0,30.7,95,30.25,10.0,West,9.2,-,N/A,,Overcast,280,2013-03-06 23:55:00
6:59 PM,32.0,30.2,93,30.25,10.0,West,9.2,-,N/A,Snow,Light Snow,280,2013-03-06 23:59:00
7:44 PM,32.0,32.0,100,30.23,5.0,West,10.4,-,N/A,Snow,Light Snow,270,2013-03-07 00:44:00
7:55 PM,30.7,30.6,99,30.26,5.0,West,10.4,-,0.00,Snow,Light Snow,280,2013-03-07 00:55:00
8:55 PM,30.6,30.2,99,30.27,10.0,West,11.5,-,0.00,Snow,Light Snow,280,2013-03-07 01:55:00
9:55 PM,30.4,29.8,98,30.27,10.0,WNW,10.4,-,0.00,,Overcast,300,2013-03-07 02:55:00
10:28 PM,32.0,30.2,93,30.24,10.0,WNW,9.2,-,N/A,,Overcast,300,2013-03-07 03:28:00
10:50 PM,30.2,30.2,100,30.27,10.0,WNW,9.2,-,N/A,,Overcast,300,2013-03-07 03:50:00
10:55 PM,30.4,29.7,97,30.27,10.0,WNW,8.1,-,0.00,,Overcast,290,2013-03-07 03:55:00
11:03 PM,30.2,30.2,100,30.27,10.0,WNW,10.4,-,N/A,,Overcast,290,2013-03-07 04:03:00
11:05 PM,30.2,30.2,100,30.27,9.0,WNW,10.4,-,N/A,,Overcast,300,2013-03-07 04:05:00
11:07 PM,30.2,30.2,100,30.27,9.0,WNW,10.4,-,N/A,,Overcast,300,2013-03-07 04:07:00
11:12 PM,30.2,30.2,100,30.27,8.0,WNW,9.2,-,N/A,,Overcast,290,2013-03-07 04:12:00
11:13 PM,30.2,30.2,100,30.27,8.0,WNW,10.4,-,N/A,,Overcast,290,2013-03-07 04:13:00
11:15 PM,30.2,30.2,100,30.27,8.0,WNW,9.2,-,N/A,,Overcast,290,2013-03-07 04:15:00
11:18 PM,30.2,30.2,100,30.27,8.0,WNW,9.2,-,N/A,,Overcast,300,2013-03-07 04:18:00
11:20 PM,30.2,30.2,100,30.27,8.0,WNW,10.4,-,N/A,,Overcast,300,2013-03-07 04:20:00
11:35 PM,30.2,30.2,100,30.28,9.0,WNW,10.4,-,N/A,,Overcast,290,2013-03-07 04:35:00
11:55 PM,30.2,29.7,98,30.27,9.0,WNW,9.2,-,0.00,,Overcast,290,2013-03-07 04:55:00